Precipitable_Water
0.81 0.75 0.66 0.65 0.66 0.67 0.64 0.59 0.56 0.52 0.50 0.49 0.44 0.42 0.42 0.43 0.45 0.42 0.41 0.41 0.41 0.40 0.41 0.41 0.40 0.39 0.39 0.38 0.39 0.40 0.42 0.44 0.44 0.46 0.45 0.45 0.44 0.44 0.43 0.42 0.42 0.42
0.82 0.80 0.73 0.70 0.70 0.72 0.69 0.64 0.58 0.56 0.54 0.53 0.51 0.49 0.51 0.51 0.50 0.49 0.47 0.46 0.45 0.43 0.43 0.42 0.41 0.40 0.38 0.37 0.36 0.34 0.34 0.36 0.38 0.43 0.40 0.40 0.40 0.40 0.39 0.40 0.38 0.39
0.83 0.83 0.81 0.75 0.74 0.72 0.70 0.67 0.64 0.61 0.58 0.56 0.55 0.54 0.54 0.57 0.55 0.56 0.55 0.54 0.53 0.52 0.51 0.50 0.48 0.46 0.44 0.42 0.41 0.39 0.37 0.36 0.36 0.39 0.39 0.37 0.38 0.36 0.36 0.35 0.33 0.33
0.85 0.90 0.91 0.86 0.81 0.78 0.75 0.71 0.68 0.66 0.64 0.59 0.55 0.55 0.57 0.59 0.60 0.58 0.57 0.59 0.57 0.58 0.59 0.58 0.56 0.54 0.51 0.48 0.48 0.47 0.46 0.44 0.44 0.45 0.43 0.43 0.42 0.40 0.39 0.38 0.37 0.36
0.89 0.96 0.96 0.91 0.87 0.83 0.82 0.72 0.70 0.70 0.68 0.64 0.61 0.60 0.60 0.61 0.61 0.60 0.58 0.58 0.58 0.59 0.60 0.60 0.60 0.59 0.58 0.55 0.54 0.52 0.52 0.50 0.51 0.49 0.47 0.47 0.48 0.47 0.46 0.44 0.41 0.41
0.87 0.92 0.91 0.85 0.86 0.78 0.82 0.76 0.73 0.74 0.74 0.74 0.73 0.70 0.66 0.67 0.66 0.64 0.62 0.59 0.58 0.60 0.60 0.61 0.60 0.60 0.59 0.58 0.58 0.56 0.55 0.53 0.54 0.53 0.50 0.48 0.50 0.52 0.50 0.49 0.45 0.43
0.84 0.87 0.91 0.88 0.87 0.83 0.80 0.84 0.79 0.78 0.79 0.82 0.84 0.81 0.81 0.77 0.76 0.74 0.72 0.70 0.68 0.67 0.68 0.67 0.65 0.63 0.63 0.60 0.60 0.59 0.58 0.56 0.56 0.55 0.52 0.51 0.51 0.51 0.53 0.53 0.51 0.49
0.85 0.86 0.89 0.88 0.86 0.90 0.86 0.86 0.85 0.82 0.84 0.87 0.86 0.88 0.87 0.85 0.85 0.86 0.85 0.83 0.80 0.78 0.76 0.77 0.78 0.76 0.73 0.69 0.66 0.64 0.63 0.63 0.60 0.58 0.57 0.55 0.54 0.52 0.53 0.54 0.54 0.54
0.87 0.84 0.85 0.86 0.86 0.88 0.86 0.88 0.90 0.89 0.91 0.90 0.92 0.93 0.94 0.91 0.90 0.92 0.93 0.93 0.92 0.90 0.87 0.85 0.86 0.86 0.87 0.85 0.82 0.79 0.76 0.74 0.72 0.69 0.65 0.63 0.59 0.57 0.57 0.58 0.57 0.57
0.88 0.86 0.85 0.87 0.89 0.91 0.91 0.92 0.96 0.96 0.97 0.97 1.00 1.02 0.99 0.98 0.97 0.97 0.96 0.94 0.93 0.92 0.91 0.90 0.89 0.90 0.91 0.92 0.91 0.89 0.89 0.87 0.84 0.81 0.77 0.75 0.73 0.70 0.68 0.67 0.64 0.62
0.89 0.88 0.89 0.92 0.95 0.96 0.96 0.99 1.04 1.05 1.04 1.04 1.05 1.00 0.97 0.98 1.01 1.03 1.02 1.00 0.98 0.95 0.94 0.93 0.92 0.93 0.92 0.93 0.94 0.94 0.93 0.93 0.92 0.89 0.87 0.85 0.83 0.82 0.80 0.78 0.76 0.73
0.86 0.83 0.84 0.89 0.93 0.99 1.01 1.00 1.01 1.02 1.00 1.04 1.03 1.00 1.01 1.04 1.02 1.03 1.03 1.06 1.05 1.01 0.99 0.98 0.98 0.97 0.95 0.95 0.96 0.96 0.96 0.96 0.95 0.95 0.93 0.90 0.88 0.87 0.86 0.84 0.80 0.79
0.92 0.90 0.89 0.89 0.91 0.93 0.96 0.96 0.95 0.97 0.97 0.96 0.99 0.98 0.98 1.00 1.04 0.99 0.99 1.04 1.08 1.04 1.00 1.00 0.99 0.98 0.95 0.94 0.93 0.93 0.92 0.92 0.93 0.94 0.94 0.93 0.91 0.90 0.89 0.87 0.85 0.83
0.91 0.88 0.86 0.89 0.90 0.93 0.96 0.95 0.94 0.97 0.99 1.02 1.03 1.00 1.00 1.01 1.02 1.01 1.00 0.99 1.00 1.04 1.03 1.00 0.99 0.96 0.96 0.96 0.95 0.93 0.92 0.91 0.92 0.92 0.94 0.94 0.93 0.91 0.91 0.90 0.89 0.88
0.91 0.90 0.89 0.87 0.89 0.90 0.89 0.89 0.94 0.98 1.00 0.97 0.99 1.00 1.02 1.00 1.02 0.99 0.96 0.96 1.00 1.03 1.00 0.98 0.95 0.93 0.94 0.93 0.91 0.91 0.91 0.90 0.92 0.93 0.93 0.93 0.93 0.92 0.92 0.92 0.91 0.91
0.86 0.86 0.86 0.87 0.88 0.88 0.89 0.93 0.94 0.94 0.92 0.89 0.90 0.95 0.98 1.01 0.98 0.96 0.98 0.98 1.00 1.01 0.98 0.94 0.92 0.93 0.93 0.93 0.92 0.89 0.88 0.90 0.92 0.93 0.92 0.92 0.91 0.91 0.90 0.90 0.91 0.91
0.82 0.83 0.86 0.86 0.88 0.89 0.91 0.97 0.92 0.94 0.90 0.83 0.81 0.85 0.85 0.89 0.97 0.96 0.94 0.91 0.91 0.92 0.93 0.91 0.90 0.92 0.93 0.93 0.92 0.93 0.93 0.92 0.90 0.89 0.89 0.87 0.87 0.86 0.86 0.88 0.91 0.93
0.79 0.79 0.80 0.82 0.84 0.84 0.84 0.86 0.85 0.80 0.78 0.78 0.79 0.81 0.83 0.88 0.87 0.85 0.83 0.81 0.80 0.79 0.78 0.79 0.81 0.85 0.87 0.89 0.90 0.90 0.90 0.89 0.88 0.86 0.85 0.84 0.82 0.82 0.82 0.84 0.84 0.84
0.63 0.60 0.60 0.61 0.60 0.61 0.62 0.65 0.67 0.70 0.72 0.73 0.73 0.71 0.68 0.63 0.61 0.59 0.58 0.60 0.60 0.60 0.62 0.67 0.70 0.74 0.76 0.77 0.77 0.77 0.78 0.79 0.80 0.81 0.82 0.82 0.83 0.83 0.83 0.82 0.81 0.80
0.51 0.51 0.50 0.49 0.50 0.51 0.51 0.49 0.48 0.48 0.51 0.52 0.52 0.53 0.51 0.50 0.49 0.48 0.48 0.49 0.50 0.50 0.50 0.53 0.55 0.60 0.62 0.63 0.62 0.63 0.66 0.69 0.72 0.73 0.74 0.75 0.75 0.75 0.76 0.76 0.75 0.75
0.46 0.47 0.46 0.45 0.47 0.48 0.47 0.46 0.45 0.46 0.46 0.47 0.47 0.45 0.44 0.43 0.42 0.41 0.42 0.43 0.44 0.45 0.45 0.45 0.48 0.52 0.53 0.55 0.58 0.60 0.60 0.61 0.64 0.66 0.67 0.67 0.68 0.68 0.69 0.70 0.70 0.70
0.47 0.47 0.47 0.47 0.47 0.47 0.46 0.46 0.46 0.45 0.44 0.44 0.44 0.43 0.42 0.41 0.40 0.39 0.37 0.37 0.39 0.40 0.40 0.40 0.45 0.48 0.49 0.50 0.52 0.55 0.58 0.60 0.61 0.61 0.60 0.61 0.61 0.62 0.62 0.64 0.66 0.67
0.49 0.48 0.47 0.47 0.47 0.46 0.46 0.45 0.43 0.41 0.38 0.39 0.36 0.38 0.38 0.37 0.37 0.37 0.37 0.36 0.37 0.39 0.39 0.39 0.41 0.43 0.44 0.46 0.48 0.50 0.52 0.54 0.57 0.58 0.58 0.57 0.56 0.56 0.57 0.59 0.60 0.62
0.49 0.48 0.45 0.45 0.45 0.45 0.46 0.46 0.44 0.42 0.40 0.41 0.39 0.40 0.40 0.42 0.43 0.41 0.40 0.38 0.37 0.36 0.38 0.38 0.40 0.43 0.44 0.47 0.48 0.51 0.53 0.54 0.55 0.54 0.53 0.52 0.51 0.53 0.54 0.56 0.57 0.58
0.52 0.51 0.49 0.48 0.47 0.48 0.48 0.47 0.45 0.45 0.46 0.47 0.47 0.47 0.47 0.48 0.47 0.45 0.44 0.43 0.42 0.40 0.39 0.38 0.40 0.43 0.45 0.48 0.51 0.53 0.55 0.57 0.57 0.54 0.51 0.49 0.48 0.48 0.50 0.51 0.53 0.54
0.53 0.53 0.53 0.51 0.50 0.50 0.51 0.51 0.51 0.51 0.50 0.51 0.51 0.50 0.49 0.49 0.50 0.49 0.47 0.46 0.46 0.44 0.42 0.41 0.41 0.43 0.46 0.49 0.53 0.57 0.60 0.60 0.59 0.55 0.51 0.49 0.48 0.47 0.47 0.49 0.50 0.52
Wind_Speed
16 15 14 13 12 11 10 9 7 6 5 4 4 4 3 3 3 2 2 2 2 2 2 2 2 3 3 3 3 4 4 4 4 4 4 5 5 5 6 6 6 7
18 17 15 14 13 11 11 10 9 7 6 5 5 5 4 4 3 3 3 2 2 2 2 2 2 2 2 3 3 3 3 3 3 3 3 4 4 5 5 5 6 6
19 18 16 15 14 12 12 11 10 9 7 7 6 6 5 5 4 4 4 4 3 3 2 2 2 2 2 2 2 3 3 3 3 3 3 3 3 4 4 4 5 5
19 19 17 16 15 13 12 12 12 10 9 8 8 7 7 6 6 6 6 6 5 5 4 3 3 3 3 3 3 3 3 3 3 3 3 3 3 3 3 3 4 4
18 18 18 17 16 15 14 14 13 12 11 10 9 9 8 8 7 7 7 7 7 7 6 5 5 4 4 4 4 4 4 4 4 4 4 4 4 4 4 4 4 4
18 19 19 17 17 16 16 15 15 14 13 12 11 10 10 9 9 9 8 8 8 8 8 7 7 6 6 6 6 6 5 5 5 5 5 5 5 5 5 5 5 5
19 19 18 18 17 17 17 16 16 16 15 13 12 12 11 11 10 10 9 9 9 9 9 9 8 8 8 7 7 7 7 7 7 7 7 7 7 7 7 7 7 7
19 19 19 19 18 17 17 17 16 16 16 15 15 14 13 12 12 11 10 10 10 10 10 9 9 9 9 9 9 9 8 8 8 8 8 8 8 8 8 8 8 8
18 19 19 19 19 19 19 18 18 18 17 17 17 16 16 15 14 13 12 12 12 12 11 11 11 11 11 11 11 11 10 10 10 10 10 10 10 10 10 10 10 10
16 17 18 19 19 19 19 19 19 19 18 18 18 17 17 17 16 16 16 15 15 14 14 14 13 13 13 13 13 13 13 13 12 12 12 12 12 12 12 12 11 11
15 16 17 18 19 19 19 19 19 19 18 18 18 18 18 18 19 19 19 18 18 17 17 16 15 15 15 16 16 16 16 15 15 15 14 14 14 13 13 13 13 13
16 16 17 17 18 19 19 18 18 19 19 19 19 19 20 20 20 20 20 20 19 19 19 18 17 17 17 17 17 18 18 18 18 17 17 17 16 16 15 15 15 15
16 17 17 17 17 18 18 17 18 19 20 20 19 20 20 21 21 21 21 21 21 20 20 19 18 18 18 18 18 19 20 20 20 20 20 20 19 19 18 18 18 17
17 18 18 18 18 19 20 20 20 20 20 20 20 20 21 22 22 22 22 22 22 21 20 19 19 20 20 20 20 21 21 22 23 23 23 22 22 22 22 21 20 20
18 18 19 20 21 21 22 22 22 22 21 21 22 22 22 23 23 24 24 23 23 22 22 21 20 21 21 22 22 23 23 23 24 24 24 24 25 25 24 24 23 23
18 18 19 20 21 22 22 22 22 22 22 23 23 23 23 22 22 22 22 22 22 22 22 22 22 22 23 23 24 24 23 23 23 24 24 25 26 26 26 26 26 26
19 19 19 20 21 21 21 21 20 20 21 21 21 21 21 21 20 20 21 22 22 22 22 22 22 22 22 23 23 23 24 24 24 24 25 25 26 27 27 27 27 28
20 20 20 20 21 21 21 20 20 20 20 20 20 20 20 20 21 21 22 22 22 22 22 22 22 22 22 22 22 23 24 24 25 25 26 26 26 27 28 28 28 29
21 21 21 21 21 21 21 21 21 20 20 20 20 20 20 21 21 22 22 23 22 22 22 22 22 23 23 23 23 24 24 25 26 26 27 27 28 28 29 30 30 31
22 22 22 22 22 22 22 22 21 21 20 20 21 21 21 22 22 22 23 23 23 23 23 24 24 24 25 25 25 25 26 26 26 27 28 28 29 29 30 31 32 32
23 23 23 23 23 23 23 23 22 22 22 22 23 23 23 23 23 24 24 24 24 25 25 25 25 26 26 26 27 27 27 27 28 28 28 29 29 30 31 31 32 32
25 25 25 25 25 24 24 24 24 24 24 24 24 24 24 25 25 25 25 25 26 26 26 27 27 27 28 28 29 28 28 28 29 29 29 30 30 30 31 31 31 31
27 27 27 27 27 26 26 26 26 26 26 25 25 25 25 25 25 25 25 26 26 26 27 27 28 28 29 30 30 29 29 29 29 29 29 30 30 30 30 30 30 30
28 28 28 28 28 28 28 27 27 27 26 26 26 26 26 26 26 26 26 26 26 27 28 28 29 29 30 30 30 30 29 29 29 29 29 29 29 29 29 29 29 29
28 28 28 28 28 29 28 28 28 27 27 26 26 26 27 27 27 27 27 28 28 28 29 30 30 31 31 31 30 30 30 30 30 30 30 30 29 29 29 29 29 28
28 28 28 28 28 28 28 28 28 28 28 28 28 28 29 29 29 29 29 30 30 30 30 30 31 31 31 31 30 30 30 30 30 30 30 30 30 29 29 29 29 29
Wind_Direction
248 247 246 247 247 249 251 250 252 258 263 265 263 261 259 260 262 260 257 246 239 239 236 234 240 245 246 246 247 249 249 247 247 249 251 252 252 253 253 252 250 248
247 246 246 245 243 243 244 242 242 246 251 257 258 257 257 258 258 258 256 248 244 244 238 232 237 243 248 252 253 253 252 249 247 247 247 246 249 253 255 254 252 250
246 243 241 239 237 237 237 235 236 239 243 249 251 250 252 255 256 259 258 253 250 249 247 246 247 249 252 257 261 261 259 256 252 251 246 243 245 249 251 252 253 251
242 238 236 236 236 236 234 233 234 236 239 242 244 247 251 254 256 260 262 260 257 255 255 255 259 264 265 265 268 267 266 265 262 258 254 252 253 252 252 254 257 255
236 233 235 238 239 239 237 234 235 237 238 240 243 245 249 251 254 257 259 259 258 258 258 258 261 265 266 267 268 267 266 267 265 263 259 257 259 259 258 259 260 259
234 233 235 238 240 240 239 237 237 238 237 239 241 244 247 250 252 252 253 253 255 256 257 258 259 261 263 265 266 265 266 267 267 266 262 261 262 262 261 261 259 260
234 233 234 237 240 239 239 239 239 238 237 237 240 245 249 250 250 249 249 249 250 253 256 258 259 260 262 263 264 264 265 267 269 268 264 263 264 263 263 263 262 262
234 235 236 239 240 239 238 240 239 237 237 239 242 247 249 250 250 250 247 247 251 255 257 258 260 261 262 262 262 263 264 266 267 266 266 266 265 264 264 265 264 263
238 239 240 240 240 239 239 239 238 236 238 241 244 247 249 250 251 249 247 249 255 258 258 258 259 259 260 261 262 264 265 266 266 265 266 267 266 265 265 266 266 265
244 243 242 239 239 239 238 239 238 237 238 242 244 245 247 248 249 250 251 254 258 259 258 259 260 259 259 260 261 263 264 265 265 266 267 268 267 266 264 265 266 266
249 248 245 241 239 239 239 241 240 237 239 242 244 246 247 248 251 253 254 256 258 257 258 260 261 261 261 261 261 263 264 265 265 264 266 267 268 268 266 266 266 266
251 251 248 244 240 237 237 240 241 241 244 247 248 250 249 250 253 254 254 256 258 257 257 259 261 262 262 262 262 263 263 264 264 264 265 266 266 267 267 267 266 266
254 251 247 243 237 233 236 244 247 247 249 251 252 253 253 253 255 254 255 258 260 259 258 258 259 261 262 263 263 264 263 263 264 265 266 265 265 265 265 266 266 266
256 252 246 241 237 238 245 253 254 252 251 253 255 256 257 258 257 256 258 260 260 260 260 260 261 263 264 264 265 267 267 265 264 264 265 264 264 264 265 265 265 265
257 253 247 243 243 247 253 257 256 254 255 257 259 260 260 260 260 260 260 259 259 260 262 264 266 267 265 265 267 269 268 267 265 264 264 263 263 264 265 265 265 265
258 255 250 248 248 252 256 257 253 253 258 261 261 261 261 262 262 260 257 257 258 261 265 268 270 269 267 266 267 268 268 267 267 266 265 264 263 263 263 264 264 265
258 256 253 251 252 255 257 256 254 255 259 261 260 259 260 260 259 258 258 259 262 265 268 270 271 270 268 268 267 267 268 268 268 267 267 266 266 264 264 264 264 264
258 257 255 254 255 257 257 257 258 259 260 260 260 259 259 259 259 260 262 264 266 269 270 271 272 271 270 269 268 268 268 269 269 268 268 267 267 266 266 266 265 264
258 257 256 256 257 258 258 259 260 260 260 261 261 261 261 262 262 263 264 266 267 269 270 272 272 272 272 271 270 269 269 269 269 268 268 268 268 268 267 267 267 266
259 258 258 258 259 259 260 260 260 260 260 261 261 262 263 264 265 266 267 267 268 269 270 272 272 272 272 271 271 270 269 269 269 268 268 269 269 269 268 267 267 266
260 260 259 259 259 259 259 260 260 260 261 262 263 264 264 265 266 267 267 268 269 270 271 272 272 273 273 272 272 271 270 270 270 269 269 269 270 270 270 269 267 266
260 259 259 259 259 259 259 260 260 261 262 263 264 264 265 266 267 267 268 269 270 271 272 273 273 275 275 275 274 273 272 271 271 270 271 271 272 272 271 270 269 267
260 260 259 259 259 258 259 259 260 262 262 263 264 265 265 267 268 268 269 270 271 273 273 274 274 276 276 276 275 274 273 272 271 271 272 273 273 273 273 271 270 269
260 260 259 259 258 258 258 259 260 261 262 263 264 265 266 267 268 268 269 271 273 274 275 275 275 276 276 276 275 273 273 272 272 272 273 273 274 274 273 272 271 270
260 259 259 259 258 257 258 259 260 261 262 263 265 265 267 268 268 268 269 272 274 276 277 277 276 276 276 275 274 272 272 272 272 272 273 273 274 274 273 272 271 270
259 259 259 259 258 258 258 259 260 261 262 263 265 266 266 268 268 269 271 273 275 277 278 278 277 276 276 275 274 272 272 272 272 272 272 272 273 273 272 271 271 270